Big Rapids, MI

7:24 PM EST on February 06, 2016 (GMT -0500)
Roben-Hood

Weather History for KRQB - August, 2014

Change the Weather History Date:

Tuesday, August 19, 2014

  Actual Average Record
Temperature  
Mean Temperature 70 °F -  
Max Temperature 75 °F 76 °F 95 °F (1983)
Min Temperature 64 °F 53 °F 42 °F (1977)
Cooling Degree Days 4    
Growing Degree Days 20 (Base 50)    
Moisture  
Dew Point 68 °F    
Average Humidity 95    
Maximum Humidity 100    
Minimum Humidity 83    
Precipitation  
Precipitation 0.18 in - - ()
Sea Level Pressure  
Sea Level Pressure 29.74 in    
Wind  
Wind Speed 5 mph (South)    
Max Wind Speed 10 mph    
Max Gust Speed 20 mph    
Visibility 6 miles    
Events Rain    
Averages and records for this station are not official NWS values.
T = Trace of Precipitation, MM = Missing Value Source: NWS Daily Summary

Daily Weather History Graph

Daily Weather History Graph

Search for Another Location

Airport or City:

Trip Planner

Search our weather history database for the weather conditions in past years. The results will help you decide how hot, cold, wet, or windy it might be!

Date:

Astronomy

Aug. 19, 2014 Rise Set
Actual Time 6:50 AM EDT 8:39 PM EDT
Civil Twilight 6:20 AM EDT 9:10 PM EDT
Nautical Twilight 5:42 AM EDT 9:47 PM EDT
Astronomical Twilight 5:02 AM EDT 10:27 PM EDT
Moon 1:39 AM EDT (8/19) 4:38 PM EDT (8/19)
Length of Visible Light 14h 49m
Length of Day
13h 48m
Waning Crescent, 29% of the Moon is Illuminated
Aug 19
Waning Crescent
Aug 25
New
Sep 2
First Quarter
Sep 8
Full
Sep 15
Last Quarter

Hourly Weather History & Observations

Time (EDT) Temp. Dew Point Humidity Pressure Visibility Wind Dir Wind Speed Gust Speed Precip Events Conditions
12:14 AM 68.0 °F 68.0 °F 100% 29.81 in 10.0 mi South 5.8 mph - N/A   Overcast
12:34 AM 68.0 °F 68.0 °F 100% 29.80 in 10.0 mi South 8.1 mph - N/A   Overcast
12:55 AM 67.1 °F 67.1 °F 100% 29.79 in 10.0 mi West 4.6 mph - N/A   Mostly Cloudy
1:14 AM - - N/A% 29.77 in 10.0 mi South 6.9 mph - N/A Rain Light Rain
1:34 AM - - N/A% 29.76 in 5.0 mi South 5.8 mph - 0.02 in Rain Light Rain
1:55 AM - - N/A% 29.75 in 7.0 mi Calm Calm - 0.02 in   Scattered Clouds
2:14 AM - - N/A% 29.75 in 3.0 mi Calm Calm - N/A   Clear
2:34 AM - - N/A% 29.75 in 4.0 mi Calm Calm - N/A   Haze
2:55 AM - - N/A% 29.74 in 3.0 mi Calm Calm - N/A   Clear
3:14 AM - - N/A% 29.75 in 3.0 mi Calm Calm - N/A   Scattered Clouds
3:34 AM - - N/A% 29.74 in 2.0 mi SE 6.9 mph - N/A   Mostly Cloudy
3:55 AM - - N/A% 29.74 in 2.5 mi Calm Calm - N/A   Scattered Clouds
4:14 AM - - N/A% 29.74 in 1.8 mi SE 3.5 mph - N/A   Scattered Clouds
4:34 AM - - N/A% 29.74 in 4.0 mi SSE 3.5 mph - N/A   Haze
4:55 AM - - N/A% 29.74 in 4.0 mi SE 5.8 mph - N/A   Haze
5:14 AM - - N/A% 29.73 in 3.0 mi SSE 8.1 mph - N/A   Scattered Clouds
5:34 AM - - N/A% 29.74 in 4.0 mi SSE 3.5 mph - N/A   Haze
5:55 AM - - N/A% 29.74 in 3.0 mi SSE 3.5 mph - N/A   Overcast
6:14 AM - - N/A% 29.74 in 3.0 mi SSE 3.5 mph - N/A   Overcast
6:35 AM - - N/A% 29.74 in 3.0 mi SSE 5.8 mph - N/A   Overcast
6:55 AM - - N/A% 29.74 in 2.0 mi SSE 3.5 mph - N/A   Overcast
7:14 AM - - N/A% 29.74 in 3.0 mi WSW 5.8 mph - N/A   Overcast
7:35 AM - - N/A% 29.74 in 4.0 mi SSW 6.9 mph - 0.07 in Rain Heavy Rain
7:55 AM - - N/A% 29.74 in 7.0 mi SSE 5.8 mph - N/A Rain Rain
8:13 AM - - N/A% 29.73 in 7.0 mi SE 8.1 mph - 0.01 in Rain Rain
8:22 AM - - N/A% 29.73 in 5.0 mi SSE 5.8 mph - 0.03 in Rain Rain
8:55 AM - - N/A% 29.74 in 7.0 mi WSW 4.6 mph - 0.04 in Rain Light Rain
9:14 AM - - N/A% 29.74 in 5.0 mi SE 6.9 mph - 0.01 in Rain Light Rain
9:35 AM - - N/A% - - North - - N/A   Unknown
9:55 AM 66.4 °F 65.8 °F 98% 29.73 in 10.0 mi SE 5.8 mph - 0.04 in   Overcast
10:14 AM 67.1 °F 66.2 °F 97% 29.73 in 10.0 mi South 5.8 mph - N/A   Overcast
10:35 AM 67.1 °F 66.4 °F 98% 29.74 in 10.0 mi SSE 4.6 mph - N/A   Overcast
10:55 AM 69.4 °F 67.8 °F 95% 29.74 in 10.0 mi South 5.8 mph - N/A   Overcast
11:14 AM 70.0 °F 66.7 °F 89% 29.74 in 10.0 mi SSW 10.4 mph 19.6 mph N/A   Overcast
11:35 AM 68.9 °F 66.2 °F 91% 29.74 in 10.0 mi South 5.8 mph - N/A   Overcast
11:55 AM 70.2 °F 66.9 °F 89% 29.74 in 10.0 mi South 4.6 mph - N/A   Overcast
12:14 PM 70.0 °F 66.6 °F 89% 29.73 in 10.0 mi SSE 4.6 mph - N/A   Overcast
12:35 PM 69.3 °F 65.8 °F 89% 29.73 in 10.0 mi SSE 6.9 mph - N/A Rain Light Rain
12:55 PM 68.2 °F 66.2 °F 93% 29.73 in 10.0 mi SE 4.6 mph - N/A Rain Light Rain
1:14 PM 68.0 °F 66.0 °F 93% 29.73 in 7.0 mi SSE 5.8 mph - N/A Rain Rain
1:35 PM 67.3 °F 66.2 °F 96% 29.73 in 5.0 mi SSE 3.5 mph - 0.01 in Rain Light Rain
1:55 PM 67.6 °F 66.7 °F 97% 29.73 in 5.0 mi SSE 3.5 mph - 0.01 in   Overcast
2:14 PM 67.5 °F 67.1 °F 99% 29.73 in 4.0 mi SSE 5.8 mph - N/A   Overcast
2:35 PM 67.5 °F 67.1 °F 99% 29.72 in 3.0 mi South 6.9 mph - N/A   Overcast
2:55 PM 67.5 °F 67.3 °F 99% 29.72 in 4.0 mi South 8.1 mph - N/A   Overcast
3:14 PM 68.0 °F 67.8 °F 99% 29.72 in 5.0 mi South 8.1 mph - N/A   Overcast
3:35 PM 68.2 °F 68.2 °F 100% 29.72 in 5.0 mi SSE 6.9 mph - N/A   Overcast
3:55 PM 69.1 °F 68.9 °F 99% 29.73 in 4.0 mi SSE 6.9 mph - N/A   Overcast
4:14 PM 69.1 °F 68.9 °F 99% 29.72 in 2.5 mi SSE 5.8 mph - N/A   Overcast
4:35 PM 70.0 °F 69.8 °F 99% 29.71 in 5.0 mi South 4.6 mph - N/A   Overcast
4:55 PM 72.7 °F 70.9 °F 94% 29.71 in 7.0 mi SW 4.6 mph - N/A   Mostly Cloudy
5:14 PM 72.9 °F 70.2 °F 91% 29.71 in 7.0 mi SW 4.6 mph - N/A   Mostly Cloudy
5:35 PM 73.4 °F 70.7 °F 91% 29.70 in 10.0 mi South 3.5 mph - N/A   Overcast
5:55 PM 74.5 °F 69.8 °F 85% 29.70 in 10.0 mi SW 4.6 mph - N/A   Mostly Cloudy
6:35 PM 75.4 °F 69.8 °F 83% 29.71 in 10.0 mi SSW 6.9 mph - N/A   Mostly Cloudy
6:55 PM 73.6 °F 69.3 °F 86% 29.71 in 10.0 mi SSW 5.8 mph - N/A   Mostly Cloudy
7:15 PM 74.3 °F 69.8 °F 86% 29.71 in 10.0 mi SW 4.6 mph - N/A   Scattered Clouds
7:35 PM 74.1 °F 69.8 °F 86% 29.71 in 10.0 mi SW 5.8 mph - N/A   Clear
7:55 PM 72.7 °F 69.4 °F 90% 29.71 in 10.0 mi WSW 3.5 mph - N/A   Scattered Clouds
8:15 PM 72.1 °F 69.4 °F 91% 29.71 in 10.0 mi West 4.6 mph - N/A   Mostly Cloudy
8:35 PM 72.5 °F 69.8 °F 91% 29.71 in 10.0 mi West 9.2 mph - N/A   Mostly Cloudy
8:55 PM 70.7 °F 68.9 °F 94% 29.72 in 10.0 mi West 4.6 mph - N/A   Scattered Clouds
9:15 PM 68.5 °F 67.8 °F 98% 29.72 in 7.0 mi Calm Calm - N/A   Clear
9:35 PM 67.1 °F 67.1 °F 100% 29.74 in 1.8 mi Calm Calm - N/A   Scattered Clouds
9:55 PM 68.0 °F 68.0 °F 100% 29.74 in 5.0 mi West 3.5 mph - N/A   Clear
10:55 PM 66.6 °F 66.6 °F 100% 29.75 in 5.0 mi WSW 3.5 mph - N/A   Mostly Cloudy
11:15 PM 65.1 °F 65.1 °F 100% 29.75 in 5.0 mi Calm Calm - N/A   Scattered Clouds
11:35 PM 64.9 °F 64.9 °F 100% 29.75 in 3.0 mi Calm Calm - N/A   Scattered Clouds
11:55 PM 65.1 °F 65.1 °F 100% 29.75 in 5.0 mi Calm Calm - N/A   Mostly Cloudy